Wind_Speed
9 4 13 8 3 6 10 10 13 13 13 12 10 15 14 13 13 13 30 28 36 34 34 31 32 30 28 27 25 26 25 23 19 16 14 14 14 14 13 13 13 13 13 13 13 13 12 13 12
7 9 6 3 7 8 12 15 12 10 9 6 6 15 9 15 6 34 33 33 34 30 31 32 30 28 27 25 24 24 23 20 17 15 13 14 14 13 14 13 13 13 13 13 14 14 13 13 13
6 18 10 6 12 13 16 15 12 10 9 6 4 17 11 19 29 32 30 32 30 29 31 30 28 26 25 24 23 22 20 17 15 14 14 13 13 14 13 12 12 14 14 14 15 15 15 14 13
6 12 12 7 8 15 20 16 11 12 11 2 10 17 23 26 23 29 29 30 31 30 29 27 25 24 23 22 22 20 18 16 15 14 13 13 13 12 10 11 12 13 13 13 13 13 14 14 14
1 8 4 6 8 11 17 14 11 12 10 14 18 28 26 23 22 26 28 29 27 28 27 24 23 22 21 21 21 19 18 16 14 13 12 12 11 10 11 11 12 12 13 13 12 12 13 13 12
3 5 3 8 5 13 15 10 10 7 14 16 12 26 26 23 23 25 25 26 25 23 24 23 22 21 20 20 19 18 17 16 14 12 11 10 9 10 11 11 11 11 12 12 11 9 10 12 12
16 4 4 7 8 27 17 10 6 6 11 11 14 23 27 23 22 22 24 23 23 22 22 22 21 21 20 20 18 18 17 15 13 11 10 9 10 10 9 10 10 12 12 12 11 9 9 11 7
3 15 11 6 20 26 17 15 2 1 14 15 12 9 21 25 22 21 22 22 22 22 21 20 20 20 20 19 18 17 15 13 11 9 8 8 7 8 9 9 10 10 10 10 10 8 8 8 6
5 13 7 13 21 21 21 17 13 5 2 12 7 5 16 25 23 21 22 24 24 23 22 20 20 20 19 19 17 16 13 11 9 8 6 6 5 6 6 7 7 8 8 6 6 6 6 7 5
3 10 2 3 6 25 24 18 10 12 3 5 9 13 21 21 21 21 22 22 23 22 23 21 20 20 19 18 16 14 12 9 8 8 6 3 5 4 3 4 4 5 6 3 6 6 4 6 5
8 7 5 5 9 22 20 13 8 9 7 2 1 3 16 18 17 20 23 15 16 19 20 21 20 19 18 16 15 13 12 10 8 6 7 5 4 2 3 3 2 4 5 1 2 5 1 4 2
17 11 4 7 18 16 20 15 14 9 5 5 0 1 2 16 18 23 20 20 20 20 19 19 20 19 18 17 15 14 12 10 8 6 4 4 2 1 2 2 0 4 3 3 2 2 2 3 6
19 15 10 8 14 14 24 17 6 12 10 12 8 3 3 9 14 17 14 16 19 19 19 20 20 19 17 17 16 14 12 9 8 9 8 7 4 1 0 2 2 2 4 3 2 3 5 7 8
15 17 16 11 12 16 22 20 17 18 15 14 8 2 6 11 12 17 17 15 16 19 21 19 19 18 14 15 14 10 9 10 13 11 10 8 3 1 2 3 5 5 6 6 4 6 7 8 8
20 22 22 23 19 14 21 23 21 13 20 15 10 6 9 11 13 14 16 15 15 16 15 18 17 15 14 13 10 8 6 6 5 7 6 5 4 4 3 5 7 7 5 4 2 5 7 8 10
23 22 24 24 23 20 34 29 20 18 21 20 14 12 13 17 15 14 14 14 16 16 15 19 15 14 12 9 8 8 5 6 4 3 3 4 5 5 5 7 7 8 6 4 4 6 6 8 11
27 25 21 24 21 22 43 27 24 24 23 23 18 11 13 22 21 17 17 19 19 16 15 16 15 12 11 9 10 10 9 8 7 7 7 6 7 8 8 8 8 8 8 7 7 6 8 8 9
32 24 24 23 14 22 42 27 29 30 25 22 19 16 12 21 20 17 18 21 20 18 16 14 13 13 11 10 11 13 12 9 9 9 11 6 6 6 8 6 8 8 8 8 6 8 12 10 10
30 26 25 24 13 24 33 25 32 32 30 24 24 24 16 17 17 19 19 20 22 20 18 16 15 12 13 11 11 11 10 9 10 11 10 8 9 10 9 8 8 6 5 6 9 10 12 12 13
33 31 33 28 17 22 32 26 32 34 31 26 25 25 22 13 22 21 22 22 22 20 19 18 17 15 14 13 13 13 12 14 14 16 14 10 11 10 8 6 3 5 6 8 11 14 16 16 16
35 38 37 31 19 14 37 32 37 37 34 31 30 26 24 24 14 23 25 24 22 23 20 18 17 16 15 14 15 16 16 14 14 13 12 12 10 6 4 2 6 7 7 9 12 14 18 21 23
36 44 39 31 26 22 18 8 36 38 41 40 36 35 32 32 23 19 15 28 28 27 23 22 21 20 19 18 17 16 15 13 11 9 9 7 6 5 6 9 7 8 9 10 11 14 16 19 24
43 35 34 34 32 30 24 24 31 33 44 46 42 41 30 35 30 21 15 12 14 21 25 24 24 24 23 22 18 16 16 13 12 10 10 10 10 11 10 9 8 9 8 8 10 10 12 15 23
34 32 32 32 33 22 36 36 29 35 36 41 42 43 30 32 33 27 16 16 14 14 17 18 19 27 26 25 21 16 14 14 12 12 12 11 12 11 13 12 9 6 7 5 4 4 6 10 17
31 34 18 15 16 11 33 37 36 25 31 30 42 41 33 30 29 32 26 24 22 19 18 17 18 19 27 27 24 17 15 15 13 13 13 13 12 13 13 11 9 6 4 3 1 2 6 10 16
40 40 24 10 4 5 30 20 46 38 30 33 38 37 34 30 32 27 25 21 23 22 17 15 16 17 19 27 25 19 18 17 16 15 15 14 16 17 14 12 9 6 5 4 4 6 10 14 18
41 43 39 38 30 13 16 27 36 28 37 33 39 40 43 35 35 27 23 25 23 23 21 17 15 15 17 19 23 22 21 20 17 16 17 18 19 17 15 13 9 6 7 8 10 9 13 17 20
36 36 31 32 15 17 11 23 31 35 32 34 40 42 45 41 36 37 28 29 30 24 22 21 18 18 15 15 20 21 23 20 19 19 20 21 20 17 14 12 10 11 12 12 14 15 16 19 21
47 43 34 36 35 12 7 32 41 35 31 26 36 47 42 52 44 41 39 29 34 34 25 25 23 22 22 21 20 22 25 24 22 20 22 21 20 17 13 12 14 15 16 17 17 18 20 21 24
46 44 41 32 21 27 38 51 20 28 31 36 32 36 45 50 42 35 38 33 35 41 31 25 28 25 25 23 22 23 28 28 26 22 22 21 18 16 16 16 16 16 18 18 20 21 24 25 26
Wind_Direction
30 49 39 115 121 144 125 128 135 120 114 127 148 146 132 133 137 146 137 135 135 132 135 133 132 130 131 133 131 132 134 136 132 124 121 105 104 103 96 86 80 75 73 71 72 71 66 62 70
46 32 39 82 137 162 137 144 132 104 105 134 141 169 138 145 152 139 134 136 138 132 133 133 133 132 133 135 137 137 139 133 128 128 115 104 101 94 85 79 77 76 75 72 72 71 72 68 65
93 87 132 109 161 123 132 156 135 114 113 105 159 161 144 130 138 134 133 135 140 136 135 134 133 134 135 136 136 141 133 131 131 126 111 107 96 86 82 82 83 81 78 73 73 70 69 70 62
93 112 109 166 155 139 150 145 144 103 111 237 161 143 138 133 140 135 135 137 137 137 137 135 135 134 134 136 138 136 134 135 133 124 117 105 95 90 89 85 84 86 84 79 72 69 68 65 64
87 164 161 316 186 157 165 152 130 107 88 120 136 131 133 141 143 138 139 141 143 140 139 137 136 136 136 139 138 139 137 133 131 123 114 105 99 98 94 94 91 85 83 79 75 66 62 58 53
306 39 347 19 238 150 148 141 128 110 95 137 152 142 132 141 143 146 142 145 146 144 142 142 141 140 141 140 140 138 135 136 132 123 111 105 104 104 101 99 91 83 78 77 77 67 61 58 49
3 68 247 310 4 156 159 178 142 111 88 120 168 148 140 147 150 146 146 147 148 149 147 146 146 144 142 140 141 140 138 138 131 123 113 109 108 105 99 91 85 74 69 73 74 59 44 47 36
246 325 339 48 160 162 166 167 80 87 98 102 122 178 159 154 153 152 150 149 150 152 152 152 148 145 144 143 146 143 141 139 136 125 116 110 110 108 102 88 78 74 67 67 71 59 41 48 9
307 317 359 105 156 160 163 163 153 126 48 113 123 151 171 159 160 165 159 160 159 158 158 155 154 152 150 150 152 148 150 146 141 125 114 117 125 111 107 94 86 74 60 57 48 58 49 56 356
249 293 243 172 116 180 185 197 172 154 169 164 157 160 173 170 170 172 171 171 161 162 159 161 161 161 158 158 160 159 161 158 158 144 137 97 139 130 124 79 67 78 59 41 74 84 49 11 357
240 245 3 90 146 164 171 180 185 210 219 326 348 213 168 178 167 169 168 160 163 166 168 165 170 169 169 170 172 174 174 177 181 178 166 166 170 184 103 117 316 63 58 44 108 82 169 351 327
250 255 331 88 162 179 186 194 197 247 294 231 280 169 159 179 154 154 157 160 170 174 178 176 179 178 180 186 185 184 185 187 197 203 187 196 176 250 90 160 18 57 41 84 177 4 357 322 334
237 243 249 150 167 170 199 222 235 212 219 203 215 303 237 191 159 160 172 171 176 181 186 184 186 182 189 193 193 194 195 189 198 216 223 213 202 95 45 42 42 13 33 37 196 358 327 338 343
236 272 266 260 257 209 215 200 195 201 211 209 229 254 219 200 171 167 182 176 180 185 188 191 183 188 191 205 206 204 217 217 203 202 219 220 173 290 340 328 321 354 332 341 3 342 328 340 345
246 265 270 253 239 278 197 189 205 217 210 211 224 240 216 203 193 182 181 179 188 189 186 190 185 183 188 184 197 210 199 207 190 193 183 199 197 215 230 270 302 325 319 290 303 326 336 347 332
236 248 260 241 233 248 201 183 202 202 214 215 201 212 226 203 196 199 189 186 200 200 182 183 185 186 193 184 194 227 226 237 244 240 212 222 241 263 284 273 295 306 315 319 317 341 332 322 325
233 248 242 243 241 207 203 204 201 199 212 211 205 222 221 205 203 203 200 198 197 196 190 190 193 197 199 202 206 231 243 245 269 283 273 212 220 248 259 278 294 298 324 331 349 328 330 339 319
223 235 240 243 220 214 200 220 199 199 214 217 231 227 219 213 205 205 202 208 212 203 202 203 206 204 211 218 222 230 244 252 257 258 254 230 237 248 252 280 296 297 320 320 357 4 7 356 341
230 233 241 219 242 213 206 207 196 207 209 221 234 233 223 230 210 213 212 216 221 214 212 206 212 212 219 233 242 246 250 248 243 243 243 237 238 237 261 278 271 301 337 42 46 29 18 3 355
223 229 231 235 244 281 214 209 212 209 220 228 234 236 236 238 214 218 227 222 227 223 217 216 213 217 219 225 232 235 236 235 236 245 251 249 246 252 264 265 279 71 78 58 53 44 37 31 22
223 224 232 242 250 289 206 195 189 201 216 223 232 251 250 245 246 222 223 226 224 224 221 225 225 224 225 227 228 228 235 240 246 263 258 238 231 216 220 214 113 108 86 73 61 55 45 37 30
229 218 234 248 258 266 202 199 200 207 210 219 228 238 244 239 244 258 245 234 228 226 225 231 232 230 229 229 231 235 243 243 243 257 224 204 214 173 150 140 131 125 109 83 63 55 55 49 31
228 225 239 248 252 257 238 229 230 230 226 225 236 232 237 237 237 253 259 255 249 238 234 232 234 233 231 232 233 234 236 233 228 227 226 203 187 162 149 145 139 124 109 79 63 68 52 35 26
227 232 241 253 250 242 246 238 224 233 229 229 227 228 228 229 234 244 251 267 268 252 236 230 234 233 232 234 232 233 228 223 214 212 218 199 184 171 159 154 146 125 105 86 85 97 25 21 27
227 223 235 245 234 236 244 228 232 250 225 230 218 222 223 227 230 236 245 249 254 249 232 224 230 236 229 231 236 224 217 211 209 210 206 196 187 171 166 157 148 150 161 155 192 237 331 346 356
226 225 214 213 213 251 245 227 233 238 245 243 232 236 226 221 225 233 238 241 247 249 236 211 215 229 233 231 232 222 210 206 212 214 204 194 180 178 172 174 188 185 211 252 273 278 290 320 340
225 228 234 234 248 276 250 243 252 246 237 239 228 225 223 226 223 225 233 236 233 232 230 218 202 211 227 232 230 217 204 203 215 210 197 191 188 182 184 195 209 221 238 257 277 286 292 310 323
232 226 216 217 222 240 240 236 246 239 242 239 231 227 225 222 230 219 229 241 241 225 223 236 211 202 214 230 229 221 202 201 208 203 193 185 187 194 191 199 215 242 259 268 277 285 289 299 309
224 228 227 227 226 225 241 252 240 237 238 263 252 242 232 229 229 222 231 230 232 240 229 229 225 203 205 214 224 220 207 201 204 203 190 190 193 200 207 220 234 247 264 278 289 295 297 299 301
231 233 229 221 217 229 232 248 239 241 258 263 270 242 230 221 225 221 244 223 228 232 234 221 233 217 208 213 222 220 211 206 207 203 198 201 206 215 218 228 238 247 259 273 286 294 300 302 301
Height
3171 3171 3170 3167 3171 3167 3166 3168 3167 3166 3165 3163 3164 3164 3165 3165 3167 3171 3170 3173 3175 3177 3180 3182 3186 3190 3192 3195 3196 3198 3200 3202 3204 3206 3207 3207 3208 3208 3209 3209 3209 3209 3209 3208 3207 3206 3206 3205 3205
3172 3172 3171 3168 3169 3167 3169 3170 3168 3169 3165 3162 3163 3165 3165 3166 3167 3168 3170 3175 3179 3181 3183 3186 3189 3192 3194 3197 3199 3201 3203 3204 3206 3208 3209 3209 3210 3210 3210 3211 3211 3210 3210 3209 3208 3208 3207 3206 3206
3175 3176 3172 3165 3166 3168 3170 3171 3170 3170 3168 3166 3165 3167 3168 3168 3172 3172 3176 3178 3181 3184 3187 3189 3192 3194 3196 3198 3200 3203 3204 3206 3208 3210 3210 3210 3211 3211 3212 3212 3212 3211 3212 3211 3210 3210 3209 3208 3208
3174 3175 3173 3167 3166 3169 3168 3170 3170 3169 3169 3168 3166 3167 3169 3172 3175 3176 3178 3181 3184 3186 3189 3191 3194 3196 3197 3200 3202 3204 3205 3207 3209 3210 3211 3211 3212 3212 3213 3213 3213 3213 3213 3212 3211 3210 3210 3210 3209
3175 3175 3172 3170 3168 3168 3171 3170 3171 3171 3171 3169 3170 3169 3171 3175 3178 3179 3181 3184 3187 3188 3191 3193 3195 3197 3200 3202 3204 3205 3207 3209 3211 3212 3212 3213 3213 3214 3214 3213 3214 3215 3214 3213 3212 3212 3212 3212 3211
3176 3168 3170 3170 3167 3172 3169 3169 3171 3172 3172 3171 3172 3172 3174 3179 3181 3182 3184 3186 3189 3192 3193 3195 3197 3199 3201 3203 3205 3207 3209 3211 3212 3213 3214 3215 3216 3216 3216 3216 3216 3215 3214 3214 3214 3213 3213 3214 3213
3176 3172 3173 3169 3168 3172 3167 3169 3171 3173 3174 3173 3175 3173 3177 3180 3183 3184 3186 3188 3191 3193 3195 3197 3199 3201 3203 3205 3208 3209 3211 3212 3214 3215 3216 3217 3217 3218 3218 3219 3218 3217 3216 3216 3215 3215 3215 3215 3213
3173 3174 3173 3169 3169 3171 3172 3173 3177 3176 3175 3175 3179 3178 3177 3179 3183 3185 3187 3189 3192 3194 3196 3198 3201 3203 3205 3207 3209 3212 3213 3214 3215 3216 3218 3218 3218 3218 3219 3220 3219 3218 3217 3217 3217 3216 3216 3215 3213
3175 3175 3171 3170 3170 3170 3171 3172 3178 3178 3175 3178 3179 3180 3180 3180 3182 3185 3187 3189 3191 3193 3196 3199 3202 3204 3206 3209 3211 3213 3214 3215 3216 3218 3218 3219 3219 3220 3220 3220 3219 3218 3218 3218 3218 3217 3216 3216 3214
3172 3172 3171 3171 3171 3171 3168 3169 3172 3175 3176 3176 3178 3180 3179 3180 3182 3185 3188 3190 3192 3194 3196 3200 3203 3205 3207 3210 3212 3214 3214 3216 3217 3218 3219 3219 3220 3221 3220 3221 3220 3218 3219 3219 3218 3218 3217 3216 3215
3171 3170 3169 3169 3170 3170 3170 3170 3170 3172 3174 3174 3176 3178 3179 3180 3182 3187 3190 3193 3195 3196 3198 3201 3204 3206 3208 3211 3212 3213 3215 3216 3217 3218 3219 3219 3220 3219 3221 3219 3221 3220 3219 3219 3218 3218 3217 3216 3215
3166 3168 3167 3167 3171 3172 3172 3169 3167 3169 3173 3176 3178 3178 3179 3180 3182 3186 3190 3192 3194 3197 3200 3201 3204 3206 3208 3210 3212 3213 3214 3215 3216 3217 3218 3218 3219 3218 3220 3221 3220 3219 3219 3220 3218 3217 3216 3215 3214
3164 3166 3165 3169 3170 3172 3173 3168 3169 3171 3172 3175 3177 3177 3178 3180 3182 3186 3189 3193 3195 3196 3199 3201 3203 3205 3208 3209 3211 3212 3213 3213 3214 3215 3216 3217 3217 3217 3217 3218 3218 3219 3219 3219 3217 3216 3215 3213 3213
3162 3162 3163 3164 3167 3171 3173 3174 3171 3171 3171 3172 3174 3175 3177 3180 3181 3184 3187 3191 3193 3196 3199 3201 3203 3205 3207 3209 3210 3211 3211 3212 3214 3214 3215 3215 3216 3217 3218 3218 3218 3218 3218 3216 3216 3216 3215 3213 3211
3159 3160 3159 3160 3162 3168 3168 3172 3168 3168 3170 3171 3171 3173 3175 3177 3180 3183 3187 3189 3192 3195 3198 3200 3203 3204 3206 3207 3209 3209 3210 3211 3212 3214 3214 3215 3215 3217 3217 3216 3216 3217 3216 3215 3215 3214 3213 3211 3209
3154 3156 3155 3153 3157 3165 3166 3164 3164 3165 3168 3171 3173 3173 3173 3176 3178 3182 3186 3188 3191 3194 3197 3201 3202 3203 3204 3205 3206 3208 3208 3209 3210 3211 3212 3213 3214 3215 3215 3215 3215 3215 3215 3215 3214 3212 3211 3210 3207
3149 3149 3151 3149 3154 3155 3160 3160 3160 3164 3166 3168 3171 3173 3174 3174 3176 3180 3184 3187 3190 3193 3196 3199 3200 3202 3203 3203 3205 3206 3207 3208 3208 3209 3211 3212 3214 3214 3213 3213 3213 3213 3212 3213 3212 3211 3210 3208 3207
3142 3147 3147 3147 3151 3153 3154 3156 3155 3160 3163 3166 3168 3171 3172 3174 3175 3178 3182 3185 3188 3191 3194 3196 3198 3199 3200 3201 3203 3204 3205 3206 3208 3208 3210 3211 3211 3212 3212 3211 3212 3211 3211 3211 3210 3209 3208 3207 3204
3141 3145 3144 3143 3148 3152 3149 3151 3152 3155 3161 3164 3165 3167 3169 3172 3175 3177 3179 3182 3185 3187 3190 3194 3196 3197 3198 3198 3201 3203 3204 3205 3206 3206 3207 3208 3209 3209 3209 3209 3210 3210 3210 3210 3209 3209 3209 3207 3205
3137 3140 3138 3140 3145 3149 3149 3147 3149 3150 3153 3156 3159 3162 3166 3170 3171 3173 3175 3179 3181 3184 3187 3190 3192 3194 3196 3198 3200 3201 3202 3203 3203 3204 3204 3205 3206 3207 3207 3207 3209 3209 3210 3210 3210 3209 3209 3208 3207
3132 3134 3133 3140 3143 3145 3144 3145 3149 3152 3154 3156 3157 3160 3162 3165 3167 3169 3171 3173 3178 3180 3183 3186 3189 3191 3193 3195 3197 3198 3198 3199 3200 3201 3201 3203 3203 3204 3205 3207 3208 3209 3210 3210 3210 3211 3210 3210 3209
3125 3130 3134 3139 3142 3140 3142 3144 3146 3149 3150 3151 3153 3156 3158 3161 3163 3166 3167 3168 3170 3175 3179 3181 3184 3187 3190 3192 3194 3195 3196 3197 3198 3198 3199 3200 3201 3202 3205 3206 3207 3208 3209 3210 3211 3211 3210 3209 3208
3115 3129 3132 3137 3138 3139 3137 3139 3138 3144 3145 3146 3148 3150 3153 3154 3158 3161 3162 3164 3166 3170 3174 3178 3180 3182 3185 3187 3190 3191 3192 3194 3194 3195 3197 3198 3200 3202 3204 3205 3207 3208 3209 3210 3209 3210 3209 3209 3208
3122 3126 3128 3131 3134 3129 3130 3133 3129 3129 3134 3139 3143 3144 3146 3148 3153 3157 3159 3162 3164 3166 3169 3172 3175 3177 3180 3182 3185 3187 3189 3190 3191 3193 3195 3196 3198 3201 3203 3204 3205 3207 3208 3208 3209 3208 3208 3207 3206
3115 3120 3122 3123 3120 3115 3122 3124 3119 3121 3125 3128 3133 3135 3139 3143 3147 3152 3155 3157 3159 3161 3163 3167 3170 3172 3174 3177 3180 3183 3185 3187 3188 3191 3192 3194 3197 3199 3201 3202 3204 3206 3207 3207 3207 3207 3206 3206 3205
3103 3109 3108 3116 3114 3111 3117 3109 3107 3118 3121 3122 3125 3128 3136 3138 3140 3145 3148 3152 3154 3156 3159 3162 3165 3168 3170 3172 3175 3179 3181 3184 3186 3188 3190 3193 3196 3198 3199 3200 3201 3204 3205 3205 3205 3205 3204 3204 3203
3095 3094 3107 3107 3106 3106 3102 3104 3105 3111 3113 3115 3117 3122 3128 3129 3134 3137 3141 3144 3149 3151 3153 3157 3160 3163 3166 3168 3170 3174 3177 3180 3182 3185 3187 3190 3193 3195 3197 3198 3199 3200 3202 3202 3203 3203 3202 3202 3201
3086 3096 3097 3095 3098 3101 3094 3095 3092 3100 3105 3108 3111 3115 3117 3121 3127 3131 3135 3137 3142 3146 3149 3153 3157 3159 3163 3165 3167 3170 3174 3177 3179 3181 3184 3187 3190 3191 3193 3195 3196 3197 3198 3200 3200 3200 3200 3199 3199
3077 3078 3081 3086 3088 3088 3093 3075 3087 3094 3100 3102 3104 3106 3111 3111 3118 3124 3128 3132 3136 3140 3144 3148 3152 3154 3157 3160 3163 3166 3170 3173 3175 3178 3181 3183 3185 3188 3189 3191 3193 3195 3196 3196 3197 3197 3197 3196 3195
3066 3068 3073 3075 3077 3077 3079 3052 3081 3090 3095 3097 3097 3097 3101 3108 3115 3118 3121 3127 3133 3134 3138 3142 3146 3150 3152 3156 3159 3161 3165 3169 3171 3174 3177 3180 3181 3183 3185 3188 3189 3191 3192 3193 3193 3194 3193 3192 3191